Hourly Weather Bolshie Kibya-Kozi

Today, 26 July, Monday

Time Temperature Precipitation Wind Pressure Humidity
00:00 +13°C° 0 mm 1 mps 756 mmHg 55%
01:00 +13°C° 0 mm 1 mps 756 mmHg 55%
02:00 +13°C° 0 mm 2 mps 756 mmHg 55%
03:00 +13°C° 0 mm 2 mps 756 mmHg 55%
04:00 +14°C° 0 mm 2 mps 756 mmHg 57%
05:00 +15°C° 0 mm 2 mps 756 mmHg 59%
06:00 +16°C° 0 mm 2 mps 756 mmHg 61%
07:00 +17°C° 0 mm 2 mps 756 mmHg 57%
08:00 +19°C° 0 mm 3 mps 756 mmHg 54%
09:00 +20°C° 0 mm 3 mps 756 mmHg 50%
10:00 +21°C° 0 mm 3 mps 756 mmHg 47%
11:00 +22°C° 0 mm 4 mps 756 mmHg 43%
12:00 +23°C° 0 mm 4 mps 756 mmHg 39%
13:00 +23°C° 0 mm 4 mps 756 mmHg 40%
14:00 +23°C° 0 mm 4 mps 755 mmHg 41%
15:00 +22°C° 0 mm 4 mps 755 mmHg 42%
16:00 +22°C° 0 mm 3 mps 755 mmHg 47%
17:00 +21°C° 0 mm 3 mps 755 mmHg 52%
18:00 +20°C° 0 mm 2 mps 755 mmHg 57%
19:00 +19°C° 0 mm 2 mps 755 mmHg 57%
20:00 +18°C° 0 mm 2 mps 755 mmHg 58%
21:00 +17°C° 0 mm 2 mps 754 mmHg 58%
22:00 +17°C° 0 mm 3 mps 754 mmHg 61%
23:00 +16°C° 0 mm 3 mps 754 mmHg 63%

Tomorrow, 27 July, Tuesday

Time Temperature Precipitation Wind Pressure Humidity
00:00 +14°C° 0 mm 3 mps 754 mmHg 66%
01:00 +14°C° 0 mm 3 mps 754 mmHg 64%
02:00 +16°C° 0 mm 3 mps 754 mmHg 62%
03:00 +17°C° 0 mm 4 mps 753 mmHg 60%
04:00 +17°C° 0 mm 3 mps 753 mmHg 62%
05:00 +17°C° 0 mm 3 mps 753 mmHg 64%
06:00 +17°C° 0 mm 3 mps 753 mmHg 67%
07:00 +19°C° 0 mm 4 mps 753 mmHg 63%
08:00 +20°C° 0 mm 4 mps 753 mmHg 59%
09:00 +22°C° 0 mm 5 mps 753 mmHg 56%
10:00 +21°C° 0.2 mm 5 mps 753 mmHg 60%
11:00 +21°C° 0.2 mm 5 mps 753 mmHg 64%
12:00 +20°C° 0.2 mm 5 mps 753 mmHg 67%
13:00 +21°C° 0.5 mm 5 mps 752 mmHg 66%
14:00 +21°C° 0.5 mm 5 mps 752 mmHg 65%
15:00 +21°C° 0.5 mm 5 mps 752 mmHg 63%
16:00 +21°C° 0 mm 4 mps 752 mmHg 59%
17:00 +21°C° 0 mm 4 mps 752 mmHg 55%
18:00 +21°C° 0 mm 3 mps 752 mmHg 51%
19:00 +19°C° 0 mm 3 mps 752 mmHg 56%
20:00 +17°C° 0 mm 3 mps 752 mmHg 60%
21:00 +16°C° 0 mm 3 mps 752 mmHg 64%
22:00 +15°C° 0 mm 2 mps 752 mmHg 68%
23:00 +14°C° 0 mm 2 mps 753 mmHg 73%

Day after tomorrow, 28 July, Wednesday

Time Temperature Precipitation Wind Pressure Humidity
00:00 +13°C° 0 mm 2 mps 753 mmHg 77%
01:00 +12°C° 0 mm 1 mps 753 mmHg 78%
02:00 +12°C° 0 mm 1 mps 753 mmHg 78%
03:00 +11°C° 0 mm 1 mps 753 mmHg 79%
04:00 +13°C° 0 mm 1 mps 753 mmHg 75%
05:00 +14°C° 0 mm 1 mps 753 mmHg 70%
06:00 +15°C° 0 mm 1 mps 753 mmHg 66%
07:00 +18°C° 0 mm 1 mps 753 mmHg 60%
08:00 +18°C° 0 mm 2 mps 753 mmHg 55%
09:00 +20°C° 0 mm 2 mps 753 mmHg 49%
10:00 +21°C° 0 mm 2 mps 753 mmHg 45%
11:00 +22°C° 0 mm 3 mps 753 mmHg 42%
12:00 +24°C° 0 mm 3 mps 752 mmHg 38%
13:00 +24°C° 0 mm 3 mps 752 mmHg 38%
14:00 +25°C° 0 mm 3 mps 752 mmHg 37%
15:00 +25°C° 0 mm 4 mps 751 mmHg 36%
16:00 +23°C° 0 mm 4 mps 751 mmHg 42%
17:00 +22°C° 0 mm 4 mps 751 mmHg 47%
18:00 +21°C° 0 mm 4 mps 751 mmHg 53%
19:00 +20°C° 0 mm 3 mps 750 mmHg 58%
20:00 +19°C° 0 mm 3 mps 750 mmHg 64%
21:00 +18°C° 0 mm 3 mps 750 mmHg 70%
22:00 +17°C° 0.1 mm 3 mps 750 mmHg 77%
23:00 +16°C° 0.1 mm 3 mps 749 mmHg 84%

29 July, Thursday

Time Temperature Precipitation Wind Pressure Humidity
00:00 +16°C° 0.1 mm 3 mps 749 mmHg 91%
01:00 +14°C° 0 mm 3 mps 749 mmHg 92%
02:00 +14°C° 0 mm 3 mps 749 mmHg 93%
03:00 +14°C° 0 mm 3 mps 748 mmHg 94%
04:00 +16°C° 0 mm 3 mps 748 mmHg 91%
05:00 +17°C° 0 mm 3 mps 748 mmHg 87%
06:00 +18°C° 0 mm 3 mps 747 mmHg 84%
07:00 +19°C° 0.1 mm 4 mps 747 mmHg 82%
08:00 +20°C° 0.1 mm 5 mps 747 mmHg 79%
09:00 +21°C° 0.1 mm 6 mps 747 mmHg 77%
10:00 +20°C° 1.5 mm 5 mps 746 mmHg 84%
11:00 +19°C° 1.5 mm 4 mps 746 mmHg 90%
12:00 +18°C° 1.5 mm 3 mps 746 mmHg 97%
13:00 +18°C° 3.6 mm 4 mps 745 mmHg 97%
14:00 +17°C° 3.6 mm 5 mps 744 mmHg 97%
15:00 +17°C° 3.6 mm 6 mps 744 mmHg 96%
16:00 +17°C° 0.4 mm 5 mps 743 mmHg 96%
17:00 +17°C° 0.4 mm 5 mps 743 mmHg 96%
18:00 +19°C° 0.4 mm 4 mps 743 mmHg 95%
19:00 +18°C° 0 mm 4 mps 743 mmHg 96%
20:00 +18°C° 0 mm 3 mps 743 mmHg 97%
21:00 +18°C° 0 mm 2 mps 742 mmHg 98%
22:00 +18°C° 0 mm 2 mps 742 mmHg 98%
23:00 +17°C° 0 mm 2 mps 742 mmHg 98%

30 July, Friday

Time Temperature Precipitation Wind Pressure Humidity
00:00 +18°C° 0 mm 1 mps 742 mmHg 98%
01:00 +17°C° 0 mm 2 mps 742 mmHg 98%
02:00 +18°C° 0 mm 2 mps 742 mmHg 98%
03:00 +18°C° 0 mm 2 mps 742 mmHg 98%
04:00 +18°C° 0 mm 2 mps 743 mmHg 96%
05:00 +18°C° 0 mm 2 mps 743 mmHg 94%
06:00 +18°C° 0 mm 2 mps 743 mmHg 92%
07:00 +19°C° 0 mm 3 mps 744 mmHg 86%
08:00 +20°C° 0 mm 3 mps 744 mmHg 80%
09:00 +21°C° 0 mm 4 mps 744 mmHg 74%
10:00 +22°C° 0 mm 4 mps 745 mmHg 70%
11:00 +23°C° 0 mm 4 mps 745 mmHg 65%
12:00 +26°C° 0 mm 4 mps 745 mmHg 61%
13:00 +26°C° 0 mm 5 mps 745 mmHg 59%
14:00 +27°C° 0 mm 5 mps 745 mmHg 57%
15:00 +28°C° 0 mm 6 mps 745 mmHg 55%
16:00 +27°C° 0.5 mm 5 mps 744 mmHg 63%
17:00 +25°C° 0.5 mm 4 mps 744 mmHg 71%
18:00 +24°C° 0.5 mm 3 mps 744 mmHg 79%
19:00 +22°C° 0.2 mm 3 mps 745 mmHg 83%
20:00 +21°C° 0.2 mm 3 mps 745 mmHg 86%
21:00 +20°C° 0.2 mm 3 mps 745 mmHg 90%
22:00 +19°C° 0.1 mm 3 mps 745 mmHg 91%
23:00 +19°C° 0.1 mm 2 mps 745 mmHg 92%

31 July, Saturday

Time Temperature Precipitation Wind Pressure Humidity
00:00 +18°C° 0.1 mm 2 mps 745 mmHg 94%
01:00 +18°C° 0 mm 2 mps 745 mmHg 94%
02:00 +18°C° 0 mm 2 mps 746 mmHg 94%
03:00 +18°C° 0 mm 2 mps 746 mmHg 94%
04:00 +18°C° 0 mm 2 mps 746 mmHg 91%
05:00 +19°C° 0 mm 2 mps 746 mmHg 89%
06:00 +20°C° 0 mm 2 mps 747 mmHg 87%
07:00 +21°C° 0 mm 2 mps 747 mmHg 80%
08:00 +24°C° 0 mm 2 mps 747 mmHg 72%
09:00 +25°C° 0 mm 2 mps 747 mmHg 65%
10:00 +26°C° 0 mm 2 mps 747 mmHg 59%
11:00 +27°C° 0 mm 2 mps 747 mmHg 53%
12:00 +29°C° 0 mm 2 mps 747 mmHg 47%
13:00 +29°C° 0 mm 2 mps 747 mmHg 46%
14:00 +29°C° 0 mm 2 mps 747 mmHg 46%
15:00 +30°C° 0 mm 2 mps 747 mmHg 45%
16:00 +29°C° 0 mm 2 mps 747 mmHg 50%
17:00 +28°C° 0 mm 2 mps 747 mmHg 55%
18:00 +28°C° 0 mm 2 mps 747 mmHg 61%
19:00 +26°C° 0 mm 2 mps 747 mmHg 62%
20:00 +25°C° 0 mm 2 mps 747 mmHg 63%
21:00 +24°C° 0 mm 2 mps 747 mmHg 64%
22:00 +24°C° 0 mm 2 mps 747 mmHg 64%
23:00 +24°C° 0 mm 2 mps 747 mmHg 63%
Show more

We Need Your Consent

Meteoprog and our Service Providers may store and access personal data such as cookies, device identifiers or other similar technologies on your device and process such data to personalise content and ads, as well as provide social media features and to analyse the traffic.

  • Store and/or access information on your device

    Cookies, device identifiers or other information can be stored or accessed on your device for the purposes indicated above.

  • Personalised ads and content, ad and content measurement, audience insights, and products development

    Ads and content can be personalised based on a profile. More data can be added to better personalise ads and content. Ad and content performance can be measured. Insights about the audience who saw the ads and content can be derived. Such data can be used to develop or improve user’s experience, systems and software.

By clicking ‘I Agree’ you will allow the use of indicated cookies, device identifiers, web beacons or other similar technologies. Your settings can be changed in the browser on your device.

For certain purposes, legitimate interests may be relied on, rather than consent. You can read more about this in our Privacy and Cookie Policy.